Simultaneous Nadir Overpasses (SNOs) Predictions

Prediction of SNOs between GOES-16 and METOP-C Satellite Orbit:

Table of predicted SNOs for the next 14.0 days since TLE Epoch: 12/20/2020
Index Date Time (GOES-16) GOES-16 Lat,Lon METOP-C Lat,Lon Distance(km) Time Diff (sec)
1 12/21/2020 02:44:26 0.01, -75.16 -0.56, -77.75 294.86 80
2 12/22/2020 02:21:08 0.01, -75.17 0.58, -72.76 275.20 80
3 12/23/2020 14:39:59 -0.01, -75.21 0.48, -77.31 239.92 80
4 12/24/2020 14:22:01 -0.02, -75.22 -0.66, -72.32 330.55 80
5 12/26/2020 02:41:02 0.01, -75.22 -0.36, -76.92 193.66 80
6 12/27/2020 02:17:42 0.01, -75.23 0.73, -71.92 376.97 80
7 12/28/2020 14:36:35 -0.01, -75.28 0.26, -76.49 137.39 80
8 12/29/2020 14:18:35 -0.01, -75.30 -0.83, -71.49 433.50 80
9 12/31/2020 02:37:37 0.00, -75.30 -0.20, -76.08 90.28 80
10 01/01/2021 02:14:18 0.00, -75.31 0.95, -71.10 480.68 80
11 01/02/2021 14:33:09 -0.00, -75.37 0.09, -75.65 33.26 80
